EN

Hourly Weather Dzierzyslaw

Today, 30 October, Friday

Time Temperature Precipitation Wind Pressure Humidity
00:00 +6°C° 0 mm 4 mps 753 mmHg 87%
01:00 +5°C° 0 mm 5 mps 753 mmHg 88%
02:00 +5°C° 0 mm 4 mps 753 mmHg 90%
03:00 +5°C° 0 mm 4 mps 753 mmHg 91%
04:00 +5°C° 0 mm 4 mps 753 mmHg 93%
05:00 +4°C° 0 mm 3 mps 753 mmHg 93%
06:00 +4°C° 0 mm 3 mps 753 mmHg 93%
07:00 +4°C° 0 mm 3 mps 753 mmHg 92%
08:00 +5°C° 0 mm 3 mps 753 mmHg 87%
09:00 +7°C° 0 mm 3 mps 753 mmHg 82%
10:00 +8°C° 0 mm 3 mps 753 mmHg 77%
11:00 +9°C° 0 mm 3 mps 753 mmHg 76%
12:00 +10°C° 0 mm 3 mps 753 mmHg 75%
13:00 +10°C° 0 mm 3 mps 753 mmHg 73%
14:00 +10°C° 0.1 mm 3 mps 752 mmHg 78%
15:00 +9°C° 0.1 mm 2 mps 752 mmHg 82%
16:00 +9°C° 0.1 mm 2 mps 752 mmHg 86%
17:00 +9°C° 0.4 mm 2 mps 752 mmHg 89%
18:00 +10°C° 0.4 mm 1 mps 752 mmHg 92%
19:00 +9°C° 0.4 mm 1 mps 752 mmHg 94%
20:00 +9°C° 0.4 mm 1 mps 753 mmHg 95%
21:00 +8°C° 0.4 mm 2 mps 753 mmHg 95%
22:00 +8°C° 0.4 mm 2 mps 753 mmHg 95%
23:00 +9°C° 0.2 mm 1 mps 753 mmHg 95%

Tomorrow, 31 October, Saturday

Time Temperature Precipitation Wind Pressure Humidity
00:00 +9°C° 0.2 mm 1 mps 754 mmHg 95%
01:00 +9°C° 0.2 mm 0 mps 754 mmHg 95%
02:00 +9°C° 0 mm 1 mps 754 mmHg 95%
03:00 +9°C° 0 mm 1 mps 755 mmHg 95%
04:00 +9°C° 0 mm 1 mps 755 mmHg 94%
05:00 +9°C° 0 mm 1 mps 756 mmHg 94%
06:00 +8°C° 0 mm 1 mps 756 mmHg 95%
07:00 +8°C° 0 mm 1 mps 757 mmHg 95%
08:00 +9°C° 0 mm 1 mps 757 mmHg 89%
09:00 +10°C° 0 mm 1 mps 757 mmHg 84%
10:00 +11°C° 0 mm 1 mps 757 mmHg 79%
11:00 +12°C° 0 mm 1 mps 757 mmHg 75%
12:00 +12°C° 0 mm 1 mps 758 mmHg 71%
13:00 +13°C° 0 mm 1 mps 758 mmHg 67%
14:00 +12°C° 0 mm 1 mps 757 mmHg 70%
15:00 +12°C° 0 mm 1 mps 757 mmHg 73%
16:00 +11°C° 0 mm 1 mps 757 mmHg 76%
17:00 +9°C° 0 mm 2 mps 757 mmHg 78%
18:00 +8°C° 0 mm 2 mps 758 mmHg 80%
19:00 +8°C° 0 mm 2 mps 758 mmHg 82%
20:00 +7°C° 0 mm 2 mps 758 mmHg 83%
21:00 +7°C° 0 mm 3 mps 758 mmHg 84%
22:00 +7°C° 0 mm 3 mps 757 mmHg 85%
23:00 +5°C° 0 mm 3 mps 757 mmHg 86%

Day after tomorrow, 1 November, Sunday

Time Temperature Precipitation Wind Pressure Humidity
00:00 +5°C° 0 mm 3 mps 757 mmHg 87%
01:00 +5°C° 0 mm 3 mps 757 mmHg 87%
02:00 +5°C° 0 mm 3 mps 757 mmHg 88%
03:00 +4°C° 0 mm 3 mps 756 mmHg 88%
04:00 +4°C° 0 mm 4 mps 756 mmHg 89%
05:00 +4°C° 0 mm 3 mps 756 mmHg 89%
06:00 +4°C° 0 mm 3 mps 755 mmHg 89%
07:00 +4°C° 0 mm 3 mps 755 mmHg 89%
08:00 +5°C° 0 mm 4 mps 755 mmHg 83%
09:00 +7°C° 0 mm 4 mps 755 mmHg 77%
10:00 +8°C° 0 mm 5 mps 754 mmHg 71%
11:00 +9°C° 0 mm 5 mps 754 mmHg 69%
12:00 +10°C° 0 mm 5 mps 753 mmHg 68%
13:00 +12°C° 0 mm 5 mps 753 mmHg 67%
14:00 +10°C° 0 mm 5 mps 752 mmHg 72%
15:00 +11°C° 0 mm 4 mps 752 mmHg 77%
16:00 +10°C° 0 mm 4 mps 751 mmHg 82%
17:00 +11°C° 0.2 mm 4 mps 751 mmHg 85%
18:00 +11°C° 0.2 mm 4 mps 751 mmHg 87%
19:00 +11°C° 0.2 mm 4 mps 751 mmHg 90%
20:00 +11°C° 0.3 mm 4 mps 751 mmHg 92%
21:00 +11°C° 0.3 mm 4 mps 750 mmHg 94%
22:00 +11°C° 0.3 mm 4 mps 750 mmHg 96%
23:00 +11°C° 0 mm 4 mps 750 mmHg 95%

2 November, Monday

Time Temperature Precipitation Wind Pressure Humidity
00:00 +11°C° 0 mm 4 mps 750 mmHg 94%
01:00 +11°C° 0 mm 4 mps 749 mmHg 94%
02:00 +11°C° 0.5 mm 4 mps 749 mmHg 94%
03:00 +11°C° 0.5 mm 4 mps 749 mmHg 95%
04:00 +11°C° 0.5 mm 4 mps 749 mmHg 96%
05:00 +11°C° 0 mm 4 mps 749 mmHg 96%
06:00 +11°C° 0 mm 4 mps 750 mmHg 95%
07:00 +11°C° 0 mm 3 mps 750 mmHg 95%
08:00 +12°C° 0 mm 3 mps 750 mmHg 92%
09:00 +13°C° 0 mm 3 mps 750 mmHg 89%
10:00 +13°C° 0 mm 3 mps 750 mmHg 86%
11:00 +13°C° 0 mm 3 mps 750 mmHg 86%
12:00 +13°C° 0 mm 3 mps 750 mmHg 87%
13:00 +13°C° 0 mm 3 mps 750 mmHg 88%
14:00 +13°C° 0 mm 4 mps 750 mmHg 89%
15:00 +13°C° 0 mm 4 mps 750 mmHg 91%
16:00 +13°C° 0 mm 4 mps 750 mmHg 92%
17:00 +13°C° 0 mm 4 mps 750 mmHg 92%
18:00 +13°C° 0 mm 4 mps 750 mmHg 92%
19:00 +14°C° 0 mm 4 mps 750 mmHg 91%
20:00 +14°C° 0 mm 4 mps 750 mmHg 91%
21:00 +14°C° 0 mm 4 mps 750 mmHg 91%
22:00 +14°C° 0 mm 4 mps 750 mmHg 91%
23:00 +14°C° 0.1 mm 4 mps 750 mmHg 90%

3 November, Tuesday

Time Temperature Precipitation Wind Pressure Humidity
00:00 +14°C° 0.1 mm 4 mps 750 mmHg 90%
01:00 +14°C° 0.1 mm 4 mps 750 mmHg 90%
02:00 +14°C° 0.1 mm 4 mps 750 mmHg 90%
03:00 +14°C° 0.1 mm 4 mps 751 mmHg 91%
04:00 +14°C° 0.1 mm 4 mps 751 mmHg 91%
05:00 +14°C° 0.1 mm 4 mps 751 mmHg 90%
06:00 +14°C° 0.1 mm 4 mps 752 mmHg 89%
07:00 +14°C° 0.1 mm 4 mps 753 mmHg 88%
08:00 +14°C° 0 mm 4 mps 753 mmHg 83%
09:00 +13°C° 0 mm 5 mps 754 mmHg 77%
10:00 +13°C° 0 mm 5 mps 755 mmHg 71%
11:00 +13°C° 0 mm 5 mps 755 mmHg 66%
12:00 +14°C° 0 mm 5 mps 756 mmHg 60%
13:00 +14°C° 0 mm 5 mps 756 mmHg 54%
14:00 +13°C° 0 mm 5 mps 756 mmHg 58%
15:00 +12°C° 0 mm 4 mps 757 mmHg 61%
16:00 +11°C° 0 mm 3 mps 757 mmHg 65%
17:00 +10°C° 0 mm 3 mps 757 mmHg 68%
18:00 +10°C° 0 mm 2 mps 758 mmHg 71%
19:00 +9°C° 0 mm 2 mps 758 mmHg 74%
20:00 +9°C° 0 mm 2 mps 759 mmHg 75%
21:00 +9°C° 0 mm 1 mps 759 mmHg 75%
22:00 +9°C° 0 mm 1 mps 759 mmHg 76%
23:00 +9°C° 0 mm 1 mps 759 mmHg 76%

4 November, Wednesday

Time Temperature Precipitation Wind Pressure Humidity
00:00 +9°C° 0 mm 1 mps 759 mmHg 77%
01:00 +9°C° 0 mm 1 mps 759 mmHg 77%
02:00 +9°C° 0 mm 1 mps 759 mmHg 77%
03:00 +9°C° 0 mm 1 mps 759 mmHg 77%
04:00 +8°C° 0 mm 0 mps 759 mmHg 77%
05:00 +8°C° 0 mm 0 mps 759 mmHg 77%
06:00 +7°C° 0 mm 0 mps 760 mmHg 77%
07:00 +7°C° 0 mm 0 mps 760 mmHg 77%
08:00 +9°C° 0.1 mm 1 mps 760 mmHg 77%
09:00 +9°C° 0.1 mm 1 mps 760 mmHg 77%
10:00 +10°C° 0.1 mm 1 mps 761 mmHg 77%
11:00 +9°C° 0.4 mm 1 mps 761 mmHg 79%
12:00 +9°C° 0.4 mm 1 mps 761 mmHg 81%
13:00 +9°C° 0.4 mm 1 mps 761 mmHg 83%
14:00 +9°C° 0.2 mm 1 mps 762 mmHg 84%
15:00 +9°C° 0.2 mm 1 mps 762 mmHg 85%
16:00 +9°C° 0.2 mm 1 mps 762 mmHg 86%
17:00 +8°C° 0.1 mm 1 mps 762 mmHg 86%
18:00 +8°C° 0.1 mm 1 mps 763 mmHg 86%
19:00 +8°C° 0.1 mm 1 mps 763 mmHg 87%
20:00 +8°C° 0 mm 1 mps 763 mmHg 87%
21:00 +8°C° 0 mm 1 mps 764 mmHg 87%
22:00 +7°C° 0 mm 0 mps 764 mmHg 87%
23:00 +7°C° 0 mm 1 mps 764 mmHg 87%
Show more